DW9758 Weather Reports


time (UTC)temp
C
wind
direction
speed
KPH
gust
KPH
rain 1hr
cm
rain 24hr
cm
rain mn
cm
humidity
%
barometer
mb
20260506201513 6 330 0.0 0.0 0.00 0.25 0.25 91 1009.7
20260506200011 6 330 0.0 0.0 0.00 0.25 0.25 91 1009.6
20260506194512 6 330 0.0 0.0 0.00 0.38 0.25 91 1009.6
20260506193014 6 330 0.0 0.0 0.00 0.38 0.25 90 1009.2
20260506191511 6 330 0.0 4.8 0.00 0.38 0.25 90 1009.0
20260506190008 6 292 0.0 0.0 0.00 0.38 0.25 90 1008.9
20260506184505 6 292 0.0 1.6 0.00 0.56 0.25 90 1008.6
20260506183005 6 273 0.0 0.0 0.00 0.56 0.25 89 1008.4
20260506181506 7 278 0.0 0.0 0.00 0.56 0.25 88 1008.0
20260506180007 7 255 0.0 0.0 0.00 0.56 0.25 87 1008.1
20260506174503 7 238 0.0 0.0 0.00 0.58 0.25 86 1008.1
20260506173003 8 251 0.0 0.0 0.00 0.58 0.25 85 1007.9
20260506171505 8 261 0.0 12.9 0.00 0.58 0.25 83 1007.9
20260506170002 8 247 0.0 0.0 0.00 0.58 0.25 83 1007.8
20260506164601 9 217 1.6 14.5 0.00 0.58 0.25 80 1007.5
20260506163104 10 188 0.0 0.0 0.00 0.58 0.25 77 1007.3
20260506161606 9 121 0.0 0.0 0.00 0.58 0.25 83 1007.3
20260506160100 8 121 0.0 0.0 0.03 0.58 0.25 84 1007.2
20260506154559 8 120 0.0 0.0 0.05 0.58 0.25 87 1007.0
20260506153058 7 120 0.0 0.0 0.15 0.58 0.25 87 1007.5
20260506151608 7 120 0.0 0.0 0.20 0.58 0.25 89 1007.6
20260506150057 7 120 0.0 0.0 0.18 0.56 0.23 88 1007.8
20260506144606 7 184 0.0 0.0 0.13 0.51 0.18 88 1007.9
20260506143058 7 184 0.0 0.0 0.05 0.43 0.13 85 1007.7
20260506141557 7 181 0.0 9.7 0.05 0.38 0.05 82 1007.5
20260506140105 8 231 1.6 12.9 0.05 0.38 0.05 80 1007.0
20260506134554 8 175 1.6 14.5 0.05 0.38 0.05 81 1006.5
20260506133053 9 268 1.6 9.7 0.05 0.38 0.05 79 1006.1
20260506131555 11 221 0.0 9.7 0.00 0.33 0.03 78 1005.0
20260506130110 12 180 1.6 4.8 0.00 0.33 0.03 75 1004.6
20260506124552 12 159 0.0 6.4 0.00 0.33 0.03 74 1004.6
20260506123051 13 254 0.0 0.0 0.00 0.33 0.03 74 1004.4
20260506121551 12 241 0.0 9.7 0.00 0.33 0.03 78 1004.2
20260506120048 12 217 0.0 0.0 0.00 0.33 0.03 80 1004.2
20260506114548 11 205 0.0 0.0 0.00 0.33 0.03 77 1004.4
20260506113047 11 231 0.0 0.0 0.00 0.33 0.03 77 1004.4
20260506111549 12 232 0.0 0.0 0.00 0.33 0.03 76 1004.4
20260506110053 12 147 0.0 3.2 0.00 0.33 0.03 69 1004.3
20260506104548 12 147 0.0 0.0 0.00 0.33 0.03 68 1004.1
20260506103048 13 79 1.6 11.3 0.00 0.33 0.03 68 1004.3
20260506101553 13 60 0.0 9.7 0.00 0.33 0.03 68 1004.4
20260506100035 13 47 0.0 14.5 0.00 0.33 0.03 68 1004.5
20260506094536 13 87 1.6 22.5 0.03 0.33 0.03 70 1004.2
20260506093032 13 80 0.0 16.1 0.03 0.33 0.03 71 1004.4
20260506091530 13 76 0.0 12.9 0.03 0.33 0.03 75 1004.4
20260506090025 12 49 0.0 14.5 0.03 0.33 0.03 74 1004.2
20260506084527 11 80 0.0 9.7 0.00 0.33 0.00 77 1004.5
20260506083017 10 6 0.0 0.0 0.00 0.33 0.00 85 1004.6
20260506081508 9 6 0.0 0.0 0.00 0.33 0.00 86 1004.7
20260506073103 8 2 0.0 0.0 0.00 0.33 0.00 90 1004.9
20260506071607 8 2 0.0 0.0 0.00 0.33 0.00 90 1005.0
20260506061544 7 359 0.0 0.0 0.00 0.33 0.00 92 1005.1
20260506044540 6 359 0.0 0.0 0.00 0.33 0.00 93 1005.3
20260506043038 6 359 0.0 0.0 0.00 0.33 0.00 92 1005.5
20260506041546 6 359 0.0 0.0 0.00 0.33 0.00 92 1005.7
20260506040038 6 359 0.0 0.0 0.00 0.33 0.00 92 1005.8
20260506034508 6 359 0.0 0.0 0.00 0.33 0.00 92 1006.1
20260506033002 6 359 0.0 0.0 0.00 0.33 0.00 92 1006.3
20260506031502 6 359 0.0 0.0 0.00 0.33 0.00 93 1006.6
20260506030001 6 359 0.0 0.0 0.00 0.33 0.00 93 1006.6
20260506024600 6 359 0.0 0.0 0.00 0.33 0.00 93 1006.7
20260506023100 7 359 0.0 0.0 0.00 0.33 0.00 94 1006.8
20260506021558 7 359 0.0 0.0 0.00 0.33 0.00 94 1007.1
20260506020055 7 359 0.0 0.0 0.00 0.33 0.00 94 1007.3
20260506014557 7 359 0.0 0.0 0.00 0.33 0.00 93 1007.3
20260506013053 7 359 0.0 0.0 0.00 0.33 0.00 94 1007.5
20260506011551 7 359 0.0 0.0 0.00 0.33 0.00 94 1007.8
20260506010050 7 359 0.0 0.0 0.00 0.33 0.00 94 1007.8
20260506004554 6 359 0.0 0.0 0.00 0.33 0.00 93 1007.9
20260506003047 6 359 0.0 0.0 0.00 0.33 0.00 93 1007.9
20260506001606 6 359 0.0 0.0 0.00 0.33 0.00 93 1008.3
20260506000048 6 359 0.0 0.0 0.00 0.33 0.00 93 1008.4
20260505234549 6 359 0.0 1.6 0.00 0.33 0.00 93 1008.4
20260505233047 6 359 0.0 0.0 0.00 0.33 0.00 93 1008.3
20260505231550 6 359 0.0 6.4 0.00 0.33 0.00 93 1008.4
20260505230040 6 17 0.0 0.0 0.00 0.33 0.00 93 1008.5
20260505224541 6 17 0.0 0.0 0.00 0.33 0.00 93 1008.6
20260505223042 6 17 0.0 0.0 0.00 0.33 0.00 93 1008.8
20260505221541 6 17 0.0 0.0 0.00 0.33 0.00 92 1008.7
20260505220040 6 17 0.0 0.0 0.00 0.33 0.00 92 1008.7
20260505214554 6 29 0.0 0.0 0.00 0.33 0.33 92 1008.8
20260505213049 7 29 0.0 0.0 0.00 0.33 0.33 91 1009.1
20260505211533 7 31 0.0 0.0 0.00 0.33 0.33 92 1009.1
20260505210032 7 31 0.0 0.0 0.00 0.33 0.33 91 1009.0
20260505204536 7 31 0.0 0.0 0.00 0.33 0.33 91 1009.0
20260505203034 7 31 0.0 0.0 0.00 0.33 0.33 91 1009.0